RYR1KM EKBI-EIDW

Flight info

Callsign RYR1KM
Flight time N/A
Altitude 36000
Route BAMPI5A BAMPI P60 AMRAM L983 PETIL DCT SURAT DCT NELBO DCT NIMAT NIMAT4L
Aircraft A320/M-SDE3FGHIRWY/LB1

Departure

Time 2026-05-01 13:48
Airport Billund Airport (EKBI)

Arrival

Time N/A
Airport Dublin Airport (EIDW)
Time Latitude Longitude Altitude Speed Heading
2026-05-01 13:31 55.74535 9.15016 229 ft 0 kts 357°
2026-05-01 13:41 55.74531 9.15017 229 ft 2 kts 357°
2026-05-01 13:41 55.74514 9.15018 231 ft 2 kts 357°
2026-05-01 13:42 55.74498 9.15020 230 ft 2 kts 348°
2026-05-01 13:42 55.74481 9.15025 230 ft 2 kts 353°
2026-05-01 13:42 55.74464 9.15027 231 ft 2 kts 338°
2026-05-01 13:42 55.74452 9.15046 231 ft 2 kts 267°
2026-05-01 13:43 55.74458 9.15071 233 ft 2 kts 238°
2026-05-01 13:43 55.74462 9.15083 230 ft 0 kts 262°
2026-05-01 13:44 55.74462 9.15079 230 ft 2 kts 264°
2026-05-01 13:44 55.74422 9.14983 228 ft 15 kts 192°
2026-05-01 13:44 55.74308 9.14989 228 ft 17 kts 177°
2026-05-01 13:44 55.74226 9.15003 230 ft 17 kts 154°
2026-05-01 13:45 55.74206 9.15291 230 ft 25 kts 87°
2026-05-01 13:45 55.74215 9.15567 232 ft 39 kts 86°
2026-05-01 13:45 55.74235 9.16209 236 ft 40 kts 87°
2026-05-01 13:45 55.74249 9.16698 240 ft 40 kts 86°
2026-05-01 13:46 55.74265 9.17191 243 ft 40 kts 87°
2026-05-01 13:46 55.74274 9.17513 245 ft 33 kts 88°
2026-05-01 13:46 55.74287 9.17890 247 ft 30 kts 86°
2026-05-01 13:46 55.74199 9.18153 249 ft 28 kts 178°
2026-05-01 13:47 55.74124 9.17954 247 ft 25 kts 266°
2026-05-01 13:47 55.74103 9.17303 243 ft 86 kts 266°
2026-05-01 13:47 55.74058 9.15902 231 ft 139 kts 266°
2026-05-01 13:47 55.74015 9.13997 495 ft 159 kts 267°
2026-05-01 13:48 55.74235 9.12120 1150 ft 161 kts 302°
2026-05-01 13:48 55.74989 9.10600 1671 ft 169 kts 306°
2026-05-01 13:48 55.75698 9.08943 2204 ft 175 kts 301°
2026-05-01 13:48 55.76438 9.07062 2471 ft 196 kts 301°
2026-05-01 13:49 55.77257 9.04943 2712 ft 220 kts 301°
2026-05-01 13:49 55.78171 9.02574 3083 ft 245 kts 301°
2026-05-01 13:49 55.79123 8.99906 3600 ft 262 kts 289°
2026-05-01 13:49 55.79533 8.96776 4409 ft 261 kts 271°
2026-05-01 13:50 55.79702 8.93552 5355 ft 262 kts 271°
2026-05-01 13:50 55.79868 8.90300 6248 ft 266 kts 272°
2026-05-01 13:50 55.80036 8.87009 7123 ft 269 kts 272°
2026-05-01 13:50 55.80207 8.83676 7949 ft 272 kts 271°
2026-05-01 13:51 55.80380 8.80306 8776 ft 276 kts 271°
2026-05-01 13:51 55.80551 8.76899 9600 ft 279 kts 271°
2026-05-01 13:51 55.80727 8.73441 10404 ft 282 kts 271°
2026-05-01 13:51 55.80907 8.69883 10815 ft 300 kts 271°
2026-05-01 13:52 55.81103 8.66055 11064 ft 321 kts 272°
2026-05-01 13:52 55.81378 8.62065 11655 ft 328 kts 274°
2026-05-01 13:52 55.81714 8.58032 12365 ft 332 kts 275°
2026-05-01 13:52 55.82075 8.53949 13084 ft 335 kts 275°
2026-05-01 13:53 55.82432 8.49831 13828 ft 338 kts 275°
2026-05-01 13:53 55.83128 8.41453 15142 ft 346 kts 275°
2026-05-01 13:53 55.83466 8.37251 15756 ft 349 kts 275°
2026-05-01 13:54 55.83806 8.32953 16384 ft 353 kts 275°
2026-05-01 13:54 55.84146 8.28611 17003 ft 356 kts 275°
2026-05-01 13:54 55.84481 8.24236 17614 ft 359 kts 274°
2026-05-01 13:54 55.84792 8.19811 18228 ft 362 kts 274°
2026-05-01 13:55 55.85074 8.15565 18794 ft 365 kts 274°
2026-05-01 13:55 55.85372 8.11046 19342 ft 369 kts 274°
2026-05-01 13:55 55.85674 8.06491 19915 ft 372 kts 274°
2026-05-01 13:55 55.85979 8.01895 20508 ft 376 kts 274°
2026-05-01 13:56 55.86285 7.97258 21098 ft 379 kts 274°
2026-05-01 13:56 55.86595 7.92584 21676 ft 382 kts 275°
2026-05-01 13:56 55.86901 7.87872 22256 ft 385 kts 274°
2026-05-01 13:56 55.87210 7.83106 22825 ft 388 kts 274°
2026-05-01 13:57 55.87519 7.78313 23383 ft 392 kts 275°
2026-05-01 13:57 55.87827 7.73496 23941 ft 395 kts 275°
2026-05-01 13:57 55.88062 7.69788 24100 ft 403 kts 275°
2026-05-01 13:57 55.88344 7.65319 24198 ft 415 kts 275°
2026-05-01 13:58 55.88645 7.60520 24313 ft 425 kts 275°
2026-05-01 13:58 55.88976 7.55214 24434 ft 436 kts 275°
2026-05-01 13:58 55.89315 7.49791 24554 ft 445 kts 275°
2026-05-01 13:58 55.89657 7.44264 24655 ft 453 kts 275°
2026-05-01 13:59 55.90004 7.38640 24786 ft 460 kts 275°
2026-05-01 13:59 55.90355 7.32931 24912 ft 465 kts 275°
2026-05-01 13:59 55.90708 7.27168 25038 ft 469 kts 274°
2026-05-01 13:59 55.91057 7.21389 25230 ft 469 kts 274°
2026-05-01 14:00 55.91397 7.15661 25479 ft 469 kts 274°
2026-05-01 14:00 55.91735 7.09888 25736 ft 468 kts 274°
2026-05-01 14:00 55.92068 7.04112 25990 ft 468 kts 274°
2026-05-01 14:00 55.92361 6.98964 26240 ft 467 kts 274°
2026-05-01 14:01 55.92689 6.93218 26523 ft 466 kts 274°
2026-05-01 14:01 55.93020 6.87473 26819 ft 465 kts 274°
2026-05-01 14:01 55.93348 6.81735 27107 ft 464 kts 274°
2026-05-01 14:01 55.93669 6.75994 27396 ft 464 kts 274°
2026-05-01 14:02 55.93985 6.70293 27734 ft 462 kts 274°
2026-05-01 14:02 55.94298 6.64596 28058 ft 461 kts 273°
2026-05-01 14:02 55.94386 6.58895 28369 ft 459 kts 269°
2026-05-01 14:02 55.94405 6.53201 28691 ft 458 kts 269°
2026-05-01 14:03 55.94422 6.47504 29013 ft 458 kts 269°
2026-05-01 14:03 55.94433 6.41827 29340 ft 457 kts 269°
2026-05-01 14:03 55.94441 6.36153 29674 ft 457 kts 269°
2026-05-01 14:03 55.94445 6.30502 30007 ft 456 kts 269°
2026-05-01 14:04 55.94448 6.24843 30354 ft 455 kts 269°
2026-05-01 14:04 55.94450 6.19203 30687 ft 454 kts 268°
2026-05-01 14:04 55.94451 6.13586 31020 ft 452 kts 268°
2026-05-01 14:04 55.94451 6.09870 31222 ft 451 kts 268°
2026-05-01 14:05 55.94444 6.02393 31637 ft 450 kts 268°
2026-05-01 14:05 55.94433 5.96806 31943 ft 449 kts 268°
2026-05-01 14:05 55.94419 5.91241 32252 ft 449 kts 268°
2026-05-01 14:05 55.94403 5.85673 32555 ft 448 kts 268°
2026-05-01 14:06 55.94386 5.80124 32869 ft 447 kts 268°
2026-05-01 14:06 55.94368 5.74581 33179 ft 447 kts 268°
2026-05-01 14:06 55.94350 5.69045 33490 ft 446 kts 268°
2026-05-01 14:06 55.94329 5.63516 33810 ft 445 kts 267°
2026-05-01 14:07 55.94305 5.58013 34174 ft 443 kts 267°
2026-05-01 14:07 55.94274 5.52534 34489 ft 441 kts 267°
2026-05-01 14:07 55.94237 5.47063 34775 ft 440 kts 267°
2026-05-01 14:08 55.94168 5.36155 35353 ft 439 kts 267°
2026-05-01 14:08 55.94138 5.30721 35644 ft 438 kts 267°
2026-05-01 14:08 55.94106 5.25289 35941 ft 437 kts 267°
2026-05-01 14:08 55.94068 5.19872 36206 ft 437 kts 267°
2026-05-01 14:09 55.94024 5.14449 36278 ft 437 kts 267°
2026-05-01 14:09 55.93925 5.03682 36286 ft 436 kts 267°
2026-05-01 14:10 55.93816 4.92868 36272 ft 436 kts 267°
2026-05-01 14:10 55.93703 4.82065 36280 ft 436 kts 266°
2026-05-01 14:11 55.93583 4.71262 36272 ft 436 kts 266°
2026-05-01 14:11 55.93377 4.55053 36266 ft 436 kts 266°
2026-05-01 14:12 55.93231 4.44229 36273 ft 436 kts 266°
2026-05-01 14:12 55.93076 4.33414 36285 ft 436 kts 266°
2026-05-01 14:13 55.92939 4.24420 36265 ft 436 kts 266°
2026-05-01 14:13 55.92734 4.11777 36280 ft 436 kts 266°
2026-05-01 14:14 55.92548 4.00963 36275 ft 436 kts 266°
2026-05-01 14:14 55.92357 3.90158 36289 ft 436 kts 265°
2026-05-01 14:15 55.92152 3.79331 36274 ft 436 kts 265°
2026-05-01 14:15 55.91942 3.68531 36276 ft 436 kts 265°
2026-05-01 14:16 55.91717 3.57729 36270 ft 436 kts 265°
2026-05-01 14:16 55.91195 3.46991 36266 ft 432 kts 255°
2026-05-01 14:17 55.89902 3.36528 36266 ft 432 kts 255°
2026-05-01 14:17 55.88614 3.26070 36261 ft 432 kts 255°
2026-05-01 14:18 55.87331 3.15615 36254 ft 432 kts 255°
2026-05-01 14:18 55.86255 3.06935 36247 ft 432 kts 255°
2026-05-01 14:19 55.84726 2.94734 36247 ft 432 kts 255°
2026-05-01 14:19 55.83405 2.84308 36241 ft 432 kts 255°
2026-05-01 14:20 55.81402 2.68698 36240 ft 431 kts 255°
2026-05-01 14:21 55.80069 2.58315 36237 ft 431 kts 254°
2026-05-01 14:21 55.78728 2.48015 36226 ft 430 kts 254°
2026-05-01 14:22 55.76681 2.32424 36226 ft 430 kts 254°
2026-05-01 14:22 55.75317 2.22065 36221 ft 431 kts 254°
2026-05-01 14:23 55.73953 2.11772 36218 ft 432 kts 254°
2026-05-01 14:23 55.72561 2.01336 36212 ft 432 kts 253°
2026-05-01 14:24 55.71157 1.90966 36214 ft 432 kts 253°
2026-05-01 14:24 55.69751 1.80612 36214 ft 432 kts 253°
2026-05-01 14:25 55.68348 1.70318 36209 ft 432 kts 253°
2026-05-01 14:25 55.66920 1.59969 36220 ft 431 kts 253°
2026-05-01 14:26 55.65010 1.46235 36208 ft 431 kts 253°
2026-05-01 14:27 55.63569 1.35925 36203 ft 431 kts 253°
2026-05-01 14:27 55.62118 1.25626 36194 ft 431 kts 253°
2026-05-01 14:28 55.60908 1.17077 36194 ft 431 kts 252°